FW9878 Weather Reports


time (UTC)temp
C
wind
direction
speed
KPH
gust
KPH
rain 1hr
cm
rain 24hr
cm
rain mn
cm
humidity
%
barometer
mb
20260906131606 22 40 3.2 8.0 0.00 0.00 0.00 95 1015.7
20260906130034 22 338 4.8 9.7 0.00 0.00 0.00 94 1015.4
20260906124541 22 62 4.8 8.0 0.00 0.00 0.00 94 1015.3
20260906123050 22 63 3.2 9.7 0.00 0.00 0.00 94 1015.2
20260906121538 22 94 1.6 4.8 0.00 0.00 0.00 95 1014.8
20260906120036 22 59 1.6 4.8 0.00 0.00 0.00 95 1014.9
20260906114536 22 57 0.0 4.8 0.00 0.00 0.00 95 1014.5
20260906113036 22 55 1.6 6.4 0.00 0.00 0.00 95 1014.6
20260906111535 23 0 1.6 6.4 0.00 0.00 0.00 95 1014.4
20260906110035 23 55 1.6 3.2 0.00 0.00 0.00 94 1014.1
20260906104535 23 333 0.0 3.2 0.00 0.00 0.00 94 1014.2
20260906103043 23 33 1.6 4.8 0.00 0.00 0.00 93 1014.2
20260906101536 23 70 1.6 4.8 0.00 0.00 0.00 93 1014.1
20260906100106 23 320 1.6 6.4 0.00 0.00 0.00 92 1013.9
20260906100034 23 320 1.6 6.4 0.00 0.00 0.00 92 1013.9
20260906094537 24 78 1.6 4.8 0.00 0.00 0.00 92 1013.6
20260906064534 27 65 1.6 4.8 0.00 0.00 0.00 88 1013.2
20260906063044 27 63 1.6 3.2 0.00 0.00 0.00 87 1013.3
20260906061534 27 59 1.6 4.8 0.00 0.00 0.00 86 1013.3
20260906060035 27 52 1.6 4.8 0.00 0.00 0.00 85 1013.3
20260906054537 27 0 0.0 4.8 0.00 0.00 0.00 84 1013.3
20260906053034 27 70 1.6 4.8 0.00 0.00 0.00 86 1013.2
20260906051552 27 0 0.0 0.0 0.00 0.00 0.00 85 1013.2
20260906050040 27 0 0.0 0.0 0.00 0.00 0.00 85 1013.1
20260906044623 27 0 0.0 0.0 0.00 0.00 0.00 84 1012.9
20260906044544 27 0 0.0 0.0 0.00 0.00 0.00 84 1012.9
20260906043044 27 19 0.0 1.6 0.00 0.00 0.00 83 1012.8
20260906041533 27 0 0.0 0.0 0.00 0.00 0.00 82 1012.7
20260906040038 27 19 0.0 1.6 0.00 0.00 0.00 81 1012.8
20260906034617 27 74 0.0 4.8 0.00 0.00 0.00 81 1012.7
20260906034540 27 74 0.0 4.8 0.00 0.00 0.00 81 1012.7
20260906033033 27 0 0.0 1.6 0.00 0.00 0.00 80 1012.4
20260906031542 27 0 0.0 0.0 0.00 0.00 0.00 81 1012.2
20260906030059 27 0 0.0 0.0 0.00 0.00 0.00 81 1012.2
20260906024535 27 0 0.0 0.0 0.00 0.00 0.00 78 1012.0
20260906023033 28 0 0.0 0.0 0.00 0.00 0.00 77 1011.9
20260906021538 29 0 0.0 0.0 0.00 0.00 0.00 75 1011.7
20260906020105 30 0 0.0 3.2 0.00 0.00 0.00 71 1011.4
20260906020033 30 0 0.0 3.2 0.00 0.00 0.00 71 1011.4
20260906014535 30 0 0.0 0.0 0.00 0.00 0.00 72 1011.2
20260906013054 30 0 0.0 1.6 0.00 0.00 0.00 71 1011.2
20260906011544 30 0 0.0 1.6 0.00 0.00 0.00 70 1011.0
20260906010036 31 0 0.0 0.0 0.00 0.00 0.00 67 1010.9
20260906004534 32 0 0.0 3.2 0.00 0.00 0.00 66 1010.8
20260906003036 32 62 1.6 6.4 0.00 0.00 0.00 63 1010.6
20260906001533 33 19 1.6 8.0 0.00 0.00 0.00 61 1010.8
20260906000112 35 59 3.2 6.4 0.00 0.00 0.00 56 1010.8
20260906000035 35 59 3.2 6.4 0.00 0.00 0.00 56 1010.8
20260905234538 36 0 0.0 3.2 0.00 0.00 0.00 53 1010.7
20260905233041 36 3 1.6 6.4 0.00 0.00 0.00 51 1010.8
20260905231534 36 30 1.6 4.8 0.00 0.00 0.00 50 1010.8
20260905230040 36 322 3.2 8.0 0.00 0.00 0.00 48 1010.9
20260905224535 37 80 1.6 4.8 0.00 0.00 0.00 49 1010.7
20260905223052 36 35 3.2 12.9 0.00 0.00 0.00 48 1010.7
20260905221535 37 49 3.2 14.5 0.00 0.00 0.00 47 1010.7
20260905220039 37 343 3.2 6.4 0.00 0.00 0.00 45 1010.7
20260905214532 38 308 3.2 9.7 0.00 0.00 0.00 44 1010.6
20260905213038 37 48 4.8 9.7 0.00 0.00 0.00 46 1010.6
20260905211535 38 331 1.6 6.4 0.00 0.00 0.00 44 1010.8
20260905210047 37 62 1.6 12.9 0.00 0.00 0.00 43 1010.8
20260905204536 38 26 3.2 12.9 0.00 0.00 0.00 44 1011.0
20260905203051 37 105 4.8 12.9 0.00 0.00 0.00 44 1010.9
20260905201535 37 307 6.4 16.1 0.00 0.00 0.00 43 1011.1
20260905200034 37 58 3.2 16.1 0.00 0.00 0.00 47 1011.3
20260905194539 37 292 4.8 14.5 0.00 0.00 0.00 45 1011.5
20260905193037 37 321 4.8 12.9 0.00 0.00 0.00 47 1011.8
20260905191542 37 19 4.8 14.5 0.00 0.00 0.00 47 1012.0
20260905190035 37 332 4.8 16.1 0.00 0.00 0.00 48 1012.0
20260905184543 37 263 3.2 16.1 0.00 0.00 0.00 47 1012.3
20260905183033 37 322 6.4 14.5 0.00 0.00 0.00 46 1012.3
20260905181535 37 235 4.8 9.7 0.00 0.00 0.00 49 1012.5
20260905180035 37 269 3.2 8.0 0.00 0.00 0.00 51 1012.5
20260905174536 36 35 3.2 9.7 0.00 0.00 0.00 53 1012.8
20260905173037 36 250 3.2 9.7 0.00 0.00 0.00 53 1013.1
20260905171538 36 340 4.8 14.5 0.00 0.00 0.00 54 1013.3
20260905170034 36 294 3.2 9.7 0.00 0.00 0.00 54 1013.3
20260905164543 35 21 4.8 9.7 0.00 0.00 0.00 57 1013.6
20260905163044 34 0 1.6 9.7 0.00 0.00 0.00 61 1013.7
20260905161541 34 60 1.6 9.7 0.00 0.00 0.00 61 1013.7
20260905160109 33 317 3.2 9.7 0.00 0.00 0.00 62 1013.9
20260905160036 33 317 3.2 9.7 0.00 0.00 0.00 62 1013.9
20260905154537 33 21 3.2 6.4 0.00 0.00 0.00 64 1013.9
20260905153037 32 255 3.2 6.4 0.00 0.00 0.00 66 1013.9
20260905151536 31 270 1.6 8.0 0.00 0.00 0.00 68 1014.0
20260905150042 32 324 4.8 9.7 0.00 0.00 0.00 65 1013.9
20260905144537 31 306 4.8 12.9 0.00 0.00 0.00 68 1013.8
20260905143035 31 306 4.8 12.9 0.00 0.00 0.00 69 1013.9
20260905141535 30 265 4.8 12.9 0.00 0.00 0.00 74 1013.8
20260905140037 29 322 1.6 8.0 0.00 0.00 0.00 78 1013.8
20260905134533 28 280 0.0 4.8 0.00 0.00 0.00 79 1013.8
20260905133035 29 0 0.0 0.0 0.00 0.00 0.00 79 1013.7